STARLINK-35530 (65921 NORAD) Tracking and Keplerian Element Data

This shows tracking and keplerian element data for the satellite.

Feedback or suggestion? Click here.




ElementValue
Catalog65921
NameSTARLINK-35530
Epoch Orbit1217
Epoch Day353.80210165
Epoch Year2025
RAAN176.9827
Inclination53.1578
Eccentricity4.25E-05
Argument of Perigee321.1327
Mean Anonmoly38.9643
Mean Motion15.30192177
Decay Rate0.00020588
L11 65921U 25225M 25353.80210165 .00020588 00000+0 70549-3 0 9990
L22 65921 53.1578 176.9827 0000425 321.1327 38.9643 15.30192177 12174



Live tracking and technical data element details for STARLINK-35530 (NORAD 65921). STARLINK-35530 can be tracked NOW for your location showing map with azimuth and elevation plus other details from your city location.







IsCatalogInMostPopularTable: catalog: 65921, numindb: 9
Update: records affected: 1



GetName: 65921 STARLINK-35530

Hit Count: updated at: Sun, 19 Apr 2026 07:55:34 GMT